Location: Branche des Alpilles
(43.6087°N, 4.6976°E)
Time: 18:24:36
(UTC+00:00)

NOSS 3-2 (C) - Pass Details

Date: 30 November 2020
Orbit: 789 x 1424 km, 63.4° (Epoch: 09 January)

Event Time Altitude Azimuth Distance (km) Brightness Sun altitude
Rises 18:51:23 0° 211° (SSW) 3,314 6.7 -29.3°
Reaches altitude 10° 18:53:41 10° 210° (SSW) 2,425 5.9 -29.7°
Enters shadow 18:57:48 53° 201° (SSW) 1,067 3.7 -30.5°
